吉林一号 高分 3C (JILIN-1 GAOFEN 3C)

导读

JILIN-01 GAOFEN 3C是中国于北京时间2020年9月15日发射的吉林一号高分系列卫星。该卫星隶属于吉林一号商业遥感卫星星座,主要用于获取高分辨率光学遥感影像,可广泛服务于国土测绘、农业监测、环境保护、灾害防控等多个领域,为各行业提供精准的空间信息支撑。

基本信息
目录编号:
46455
目录名称:
JILIN-01 GAOFEN 3C
国际标识:
2020-065B
轨道中心:
EARTH
卫星名称:
高分 3C
卫星全名:
吉林一号 高分 3C (JILIN-1 GAOFEN 3C)
卫星状态:
已陨落 最后检测时间 2026-02-11
发射日期:
2020-09-15 UTC
国别 :
中国 (CN)
星等 :
--
轨道信息
数据来源 国际轨道数据
星历时间: 2026-02-11T06:48:24+0800
轨道信息已过期121天
半长轴: 6520.472km
偏心率: 0.0010133
轨道倾角: 97.222°
近地点辐角 230.619°
升交点赤经 102.540°
平近点角 129.422°
近地点: 135.727km
远地点: 148.943km
周期: 87.333分钟
每日圈数: 16.48862
详细信息
卫星平台:
CS-L3000B
平衡模式:
三轴稳定
覆盖范围:
全球
运营商:
长光卫星技术股份有限公司
运营商所在国:
中国
制造商(研发单位):
长光卫星技术股份有限公司
制造商所在国:
中国
使用方式:
暂无
卫星简介
“吉林一号”卫星星座(JiLin-1)是长光卫星技术有限公司在建的核心工程,是我国目前最大的商业遥感卫星星座,具备了较强的服务能力。该卫星仍在工作。